Location: Wellington
(41.3000°S, 174.7830°E)
Time: 03:38:58
(UTC+13:00)

Mayak - Pass Details

Date: 24 January 2019
Orbit: 582 x 604 km, 97.6° (Epoch: 19 February)

Event Time Altitude Azimuth Distance (km) Brightness Sun altitude
Exits shadow 22:46:22 25° 94° (E) 1,220 0.0 -18.2°
Maximum altitude 22:47:06 26° 111° (ESE) 1,180 0.1 -18.3°
Drops below altitude 10° 22:50:37 10° 168° (SSE) 1,949 1.9 -18.8°
Sets 22:53:04 0° 180° (S) 2,863 3.1 -19.1°
